Temp
73 72 73 70 70 70 70 69 69 69 68 73 77 75 77 77 74 73 67 73 74 75 76 76 75 75 75 74 74 74 73 73 74 73 73 74 73 72 72 73 73 73 74
74 75 74 71 71 69 69 69 67 65 66 67 76 77 77 76 73 72 71 68 73 74 75 75 75 75 75 74 74 73 73 73 73 73 72 73 73 73 73 72 72 72 72
74 74 70 71 68 70 70 68 67 67 66 73 72 75 76 76 74 71 72 71 70 72 73 74 75 75 75 74 74 73 72 72 72 72 72 72 71 72 72 72 72 72 72
77 72 72 69 69 67 67 67 67 67 67 69 72 73 74 75 73 71 71 69 66 69 70 72 74 74 74 74 74 73 73 72 72 72 71 71 71 71 71 72 71 71 71
75 72 69 67 68 66 66 67 66 66 65 68 71 71 72 70 69 72 70 67 66 66 65 71 71 72 74 74 74 74 72 72 72 71 71 71 71 70 71 71 71 71 71
75 74 69 69 67 67 66 66 66 69 68 67 70 66 64 65 66 67 66 68 66 65 65 67 67 68 72 73 73 74 73 72 72 71 71 70 71 70 71 71 70 70 70
74 72 70 68 68 67 66 67 66 66 64 64 62 60 60 62 63 66 68 64 66 68 65 64 64 65 67 71 72 73 74 73 72 72 71 71 70 70 70 69 70 70 70
73 73 71 71 68 66 69 65 65 62 62 63 61 60 56 58 61 64 66 63 64 64 67 65 63 65 63 63 66 70 71 73 72 71 70 70 70 70 70 69 69 69 69
74 73 71 70 68 67 63 64 64 63 59 61 63 61 55 53 56 59 61 62 61 61 63 62 62 63 63 63 66 66 68 70 71 71 71 70 69 69 69 68 68 68 68
73 72 73 71 69 68 65 64 67 66 62 59 61 66 63 60 54 52 61 60 61 61 61 61 61 61 62 62 64 66 67 68 69 70 70 70 70 69 68 68 68 67 67
72 72 72 71 69 66 66 65 65 64 65 61 60 60 60 59 59 55 52 58 61 59 59 60 59 60 61 61 60 62 66 67 68 69 69 69 69 69 68 67 67 66 66
68 70 71 69 69 67 66 67 66 65 63 63 62 63 59 57 57 54 53 54 56 55 55 55 55 56 57 60 61 62 64 64 67 67 67 68 67 68 68 67 67 66 66
64 66 68 69 68 70 67 66 65 64 63 61 60 59 59 59 59 59 55 54 53 56 54 53 53 54 56 57 59 60 61 64 65 65 65 65 65 66 67 66 66 65 65
60 62 68 68 67 68 66 66 65 63 63 61 59 59 58 59 59 58 55 54 52 53 51 50 52 52 53 55 57 61 60 61 62 62 62 62 63 63 64 65 65 64 63
60 60 63 66 68 67 66 65 63 62 62 61 59 59 58 59 59 57 57 56 54 49 49 48 49 51 52 52 55 56 58 60 60 60 59 59 60 61 61 61 63 62 61
60 61 61 64 65 64 64 64 63 63 61 60 61 62 59 58 60 59 56 57 55 52 47 49 48 49 49 51 52 51 55 57 58 58 57 58 59 59 59 58 58 58 59
60 60 62 62 63 64 65 62 62 63 62 62 61 61 60 58 57 57 56 56 55 52 47 47 48 48 47 47 48 49 50 51 55 57 57 56 56 56 56 55 55 56 56
63 64 64 62 63 63 62 62 61 63 60 59 60 58 59 59 56 56 56 54 54 54 50 45 46 45 44 45 45 45 47 50 51 56 56 56 56 55 55 55 54 55 56
62 62 63 63 62 62 62 61 61 59 61 60 60 58 58 57 55 55 54 52 51 51 49 47 44 45 46 46 45 46 46 47 50 56 56 56 55 55 54 54 53 53 53
59 59 61 62 61 61 62 61 60 59 58 57 57 57 57 55 54 53 51 50 49 47 47 45 44 44 45 47 45 42 41 44 44 51 54 54 54 54 54 54 53 51 51
58 60 60 61 61 60 61 59 58 56 55 55 55 56 56 56 57 54 51 49 48 47 46 45 45 46 45 40 40 41 39 40 40 41 40 42 41 42 45 50 49 49 49
58 59 60 59 58 59 58 57 56 54 53 52 50 52 54 56 56 57 56 56 52 48 47 46 44 39 37 37 39 38 37 36 34 39 36 38 40 37 40 43 49 49 48
57 57 58 58 57 56 57 56 55 53 51 51 51 51 52 53 53 53 54 54 54 54 50 42 38 35 35 37 37 36 35 34 32 35 35 35 37 37 43 47 49 48 47
56 56 56 56 55 56 57 56 55 52 50 51 51 51 51 52 51 47 45 43 43 43 43 45 40 38 39 39 38 39 37 36 35 37 34 30 34 32 39 42 47 47 46
55 56 56 55 54 53 56 55 53 51 51 50 53 53 50 49 52 49 43 40 41 43 51 51 50 50 49 49 45 39 35 33 31 29 35 30 31 30 38 37 40 47 46
53 53 53 54 54 52 54 54 53 53 50 49 50 50 53 50 52 50 41 39 37 36 38 39 39 41 42 44 45 37 35 32 29 27 31 29 29 29 28 32 34 35 35
MSLP
1010.13 1010.54 1010.70 1010.90 1011.28 1011.72 1012.16 1012.64 1012.86 1013.04 1013.16 1012.69 1012.52 1012.79 1012.70 1013.11 1013.37 1014.09 1014.45 1014.59 1014.95 1015.04 1015.00 1014.95 1014.89 1014.83 1014.89 1014.87 1014.68 1014.64 1014.51 1014.35 1013.93 1013.84 1013.65 1013.15 1012.88 1012.54 1012.14 1011.82 1011.13 1010.47 1010.06
1009.47 1009.93 1010.44 1010.79 1011.06 1011.53 1011.94 1012.30 1012.96 1013.33 1013.48 1013.30 1012.87 1012.32 1012.67 1013.01 1013.63 1013.94 1014.37 1014.55 1014.98 1015.21 1015.25 1015.21 1015.22 1015.08 1015.15 1015.28 1015.20 1015.07 1015.07 1014.96 1014.68 1014.40 1014.34 1013.95 1013.68 1013.43 1013.16 1012.83 1012.39 1011.98 1011.68
1008.89 1009.27 1009.87 1010.45 1010.97 1011.12 1011.54 1012.08 1012.76 1013.22 1013.44 1013.02 1012.64 1012.50 1012.58 1012.82 1013.61 1013.85 1014.29 1014.46 1015.03 1015.29 1015.43 1015.43 1015.48 1015.42 1015.42 1015.55 1015.65 1015.58 1015.54 1015.45 1015.35 1015.10 1014.98 1014.80 1014.66 1014.33 1014.08 1013.85 1013.50 1013.02 1012.81
1008.55 1009.26 1009.35 1010.13 1010.58 1011.21 1011.49 1012.14 1012.78 1013.28 1012.83 1012.57 1012.41 1012.45 1012.64 1013.00 1013.49 1013.94 1014.20 1014.67 1015.09 1015.40 1015.61 1015.62 1015.65 1015.72 1015.71 1015.80 1015.97 1016.00 1015.93 1015.97 1015.88 1015.67 1015.55 1015.48 1015.38 1015.27 1014.95 1014.65 1014.48 1014.21 1013.95
1007.71 1008.89 1009.26 1009.97 1010.43 1011.05 1011.48 1011.93 1012.30 1012.70 1013.04 1012.73 1012.48 1012.68 1013.15 1013.48 1013.66 1013.87 1014.18 1014.76 1015.11 1015.44 1015.65 1015.69 1015.90 1015.97 1015.97 1015.96 1016.08 1016.23 1016.32 1016.37 1016.30 1016.31 1016.17 1016.03 1015.99 1015.93 1015.73 1015.48 1015.32 1015.06 1014.76
1007.40 1008.39 1008.99 1009.60 1010.37 1011.01 1011.37 1011.85 1012.22 1012.37 1012.33 1012.72 1012.95 1013.47 1013.59 1013.84 1014.12 1014.41 1014.55 1014.70 1014.93 1015.39 1015.62 1015.72 1016.03 1016.20 1016.24 1016.24 1016.35 1016.40 1016.54 1016.65 1016.72 1016.75 1016.72 1016.69 1016.63 1016.52 1016.26 1016.13 1016.01 1015.92 1015.81
1006.78 1008.03 1008.30 1009.18 1009.96 1010.59 1011.15 1011.36 1011.67 1012.36 1012.71 1012.56 1013.41 1014.09 1014.29 1014.35 1014.48 1014.70 1014.72 1015.07 1015.09 1015.26 1015.64 1015.87 1016.13 1016.37 1016.52 1016.60 1016.55 1016.50 1016.64 1016.84 1017.00 1017.04 1017.05 1017.11 1017.15 1017.08 1017.01 1016.91 1016.61 1016.55 1016.57
1006.03 1006.93 1007.66 1008.84 1009.73 1010.48 1010.96 1011.26 1011.60 1012.35 1012.66 1012.83 1013.38 1013.96 1014.67 1015.01 1014.98 1014.90 1015.06 1015.36 1015.38 1015.50 1015.56 1015.82 1016.18 1016.39 1016.73 1016.88 1016.83 1016.81 1016.88 1017.01 1017.18 1017.38 1017.51 1017.48 1017.48 1017.51 1017.47 1017.49 1017.56 1017.36 1017.02
1006.01 1005.82 1006.97 1007.84 1009.29 1010.12 1010.97 1011.40 1011.78 1012.16 1012.95 1013.14 1013.23 1013.83 1014.09 1014.76 1015.30 1015.45 1015.53 1015.53 1015.77 1015.90 1015.92 1016.10 1016.46 1016.59 1016.92 1017.04 1017.12 1017.13 1017.14 1017.26 1017.40 1017.59 1017.70 1017.79 1017.83 1017.83 1017.90 1017.98 1017.95 1017.90 1017.77
1005.13 1005.85 1006.60 1007.57 1008.61 1009.69 1010.84 1011.24 1011.59 1012.07 1012.72 1013.28 1013.47 1013.36 1013.70 1014.19 1015.08 1015.85 1015.74 1015.90 1016.05 1016.30 1016.42 1016.67 1016.90 1017.13 1017.22 1017.38 1017.45 1017.38 1017.39 1017.53 1017.66 1017.77 1017.88 1017.98 1017.96 1018.09 1018.21 1018.23 1018.31 1018.33 1018.35
1005.99 1006.13 1006.73 1007.45 1008.39 1009.24 1010.10 1010.94 1011.41 1011.76 1012.28 1012.91 1013.42 1013.55 1013.96 1014.15 1014.54 1015.33 1015.97 1016.26 1016.43 1017.02 1017.20 1017.34 1017.42 1017.54 1017.55 1017.63 1017.78 1017.80 1017.79 1017.62 1017.82 1017.90 1018.09 1018.23 1018.22 1018.23 1018.27 1018.40 1018.49 1018.62 1018.68
1005.54 1005.67 1006.51 1007.58 1008.66 1008.99 1009.79 1010.51 1011.04 1011.50 1011.95 1012.44 1013.07 1013.49 1014.15 1014.50 1015.00 1015.47 1015.97 1016.37 1016.80 1017.90 1018.11 1018.29 1018.34 1018.30 1018.22 1017.56 1017.77 1017.92 1017.95 1017.89 1017.97 1018.03 1018.26 1018.45 1018.55 1018.52 1018.49 1018.53 1018.62 1018.79 1018.87
1007.97 1006.18 1006.29 1007.04 1008.19 1008.92 1009.40 1010.23 1011.04 1011.45 1011.93 1012.57 1013.23 1013.85 1014.20 1014.40 1014.86 1015.34 1015.89 1016.47 1017.01 1017.94 1018.55 1018.99 1019.11 1018.93 1018.71 1018.38 1018.03 1018.04 1018.03 1018.17 1018.04 1018.12 1018.48 1018.74 1018.86 1018.76 1018.69 1018.79 1018.88 1018.92 1019.20
1008.81 1008.58 1007.06 1006.73 1007.94 1008.58 1009.30 1010.35 1011.05 1011.63 1012.15 1012.76 1013.54 1014.12 1014.42 1014.51 1014.98 1015.38 1015.88 1016.33 1017.25 1018.05 1019.04 1019.47 1019.66 1019.54 1019.23 1018.97 1018.57 1017.97 1018.03 1018.14 1018.43 1018.64 1018.91 1019.10 1019.12 1019.01 1018.95 1018.97 1019.14 1019.31 1019.51
1007.02 1004.67 1007.39 1007.00 1007.71 1008.55 1009.53 1010.20 1011.07 1011.69 1012.38 1013.04 1013.71 1014.19 1014.47 1014.87 1015.32 1015.62 1015.95 1016.14 1016.61 1017.84 1019.17 1020.11 1020.06 1020.12 1019.82 1019.58 1019.22 1018.55 1018.20 1018.34 1018.68 1019.01 1019.21 1019.32 1019.28 1019.18 1019.18 1019.27 1019.41 1019.67 1019.92
1005.96 1008.89 1008.32 1006.99 1008.24 1008.70 1009.85 1010.16 1011.14 1011.89 1012.63 1013.33 1013.77 1014.12 1014.67 1015.17 1015.51 1015.97 1016.20 1016.37 1016.61 1017.34 1019.24 1020.29 1020.74 1020.80 1020.54 1020.29 1020.12 1019.74 1019.50 1019.45 1019.51 1019.65 1019.81 1019.71 1019.51 1019.55 1019.85 1019.97 1020.28 1020.40 1020.48
1007.03 1008.32 1009.07 1008.81 1008.88 1009.12 1010.13 1010.47 1011.46 1012.19 1012.82 1013.50 1013.99 1014.43 1015.01 1015.47 1015.95 1016.39 1016.45 1016.63 1017.19 1017.64 1019.22 1020.62 1020.97 1021.20 1021.27 1021.16 1020.95 1020.78 1020.73 1020.58 1020.46 1020.39 1020.52 1020.68 1020.69 1020.60 1020.71 1020.86 1020.99 1021.00 1020.99
1006.15 1007.28 1008.21 1008.93 1009.10 1009.80 1010.39 1011.06 1011.83 1012.56 1013.23 1013.96 1014.41 1014.78 1015.48 1015.91 1016.44 1016.75 1016.78 1017.30 1017.78 1017.95 1018.96 1020.38 1021.30 1021.69 1021.86 1021.87 1021.83 1021.70 1021.69 1021.61 1021.54 1021.43 1021.42 1021.50 1021.40 1021.40 1021.43 1021.53 1021.53 1021.56 1021.46
1006.96 1007.56 1007.93 1008.32 1009.72 1010.16 1010.89 1011.61 1012.21 1012.99 1013.48 1014.35 1014.75 1015.20 1015.85 1016.33 1016.93 1017.06 1017.36 1017.93 1018.37 1018.81 1019.34 1020.33 1021.39 1021.99 1022.27 1022.23 1022.30 1022.23 1022.26 1022.27 1022.12 1022.03 1022.05 1022.13 1022.16 1022.12 1022.24 1022.30 1022.33 1022.37 1022.41
1007.55 1007.84 1008.53 1009.05 1010.03 1010.59 1011.38 1012.20 1012.72 1013.42 1014.20 1015.03 1015.45 1015.89 1016.34 1016.90 1017.29 1017.49 1017.96 1018.54 1019.10 1019.56 1020.19 1020.91 1021.74 1022.29 1022.40 1022.49 1022.49 1022.72 1022.95 1022.97 1023.03 1022.75 1022.61 1022.60 1022.73 1022.91 1022.94 1022.99 1023.05 1023.09 1023.11
1008.23 1008.50 1008.84 1009.65 1010.34 1011.05 1011.93 1012.55 1013.21 1014.14 1015.06 1015.69 1016.16 1016.58 1017.12 1017.49 1017.75 1018.05 1018.50 1019.27 1019.64 1020.20 1020.85 1021.43 1022.03 1022.50 1022.84 1022.91 1023.11 1023.00 1023.45 1023.61 1023.81 1024.07 1023.97 1023.70 1023.82 1023.97 1024.02 1023.90 1024.11 1024.00 1024.00
1008.70 1008.86 1009.54 1010.20 1010.94 1011.89 1012.52 1013.02 1013.80 1014.90 1015.83 1016.44 1017.00 1017.63 1018.10 1018.31 1018.41 1018.78 1019.22 1019.70 1020.05 1020.48 1021.20 1022.01 1022.80 1023.42 1023.82 1023.72 1023.66 1023.86 1024.04 1024.33 1024.70 1024.61 1024.79 1024.54 1024.28 1024.74 1024.71 1024.56 1024.71 1024.73 1024.79
1009.13 1009.64 1010.15 1010.71 1011.62 1012.44 1013.14 1013.72 1014.74 1015.71 1016.46 1017.14 1017.77 1018.50 1019.15 1019.33 1019.35 1019.72 1020.25 1020.68 1020.99 1021.42 1022.05 1022.78 1023.69 1024.27 1024.38 1024.39 1024.22 1024.45 1024.69 1025.05 1025.87 1025.86 1025.40 1025.65 1025.31 1025.44 1025.19 1025.09 1025.03 1025.03 1025.17
1009.80 1010.37 1010.83 1011.50 1012.20 1013.31 1013.84 1014.41 1015.52 1016.37 1017.15 1017.93 1018.62 1019.30 1019.54 1019.72 1020.38 1020.75 1021.31 1021.95 1022.65 1023.23 1023.70 1023.94 1024.40 1024.68 1024.74 1024.77 1024.69 1024.60 1024.75 1025.58 1026.15 1026.32 1026.32 1026.84 1026.40 1026.47 1026.13 1026.02 1025.68 1025.56 1025.58
1010.46 1010.91 1011.51 1012.15 1012.85 1013.94 1014.41 1015.21 1015.97 1017.03 1017.86 1018.72 1019.36 1019.86 1019.91 1020.43 1021.11 1021.69 1022.24 1023.01 1023.71 1024.16 1024.33 1024.47 1024.68 1024.95 1024.99 1024.94 1025.07 1025.07 1025.64 1025.89 1026.70 1027.48 1027.10 1027.25 1027.18 1027.12 1026.76 1026.60 1026.26 1025.87 1025.72
1010.92 1011.41 1012.15 1012.77 1013.71 1014.58 1015.11 1015.74 1016.41 1017.32 1018.35 1019.32 1020.24 1020.47 1020.65 1021.05 1021.71 1022.57 1023.05 1023.72 1024.28 1025.01 1025.28 1025.62 1026.06 1026.10 1026.26 1026.22 1026.25 1026.53 1026.78 1027.02 1027.36 1027.92 1027.71 1027.78 1027.72 1027.43 1027.53 1027.17 1026.94 1026.59 1026.37
Wind_Speed
3 5 4 4 4 5 4 4 4 2 5 5 3 5 1 7 9 6 3 11 7 8 9 11 13 14 16 16 18 18 20 20 22 23 23 24 25 26 26 26 27 29 28
4 3 4 4 4 4 4 4 4 4 1 5 7 2 4 5 7 8 5 6 9 6 8 10 11 13 14 14 16 18 19 18 20 22 23 23 25 25 25 26 26 26 27
6 5 4 4 4 4 5 4 4 3 5 9 3 5 4 6 6 6 5 5 6 7 7 8 9 11 13 14 14 16 17 17 18 20 21 22 23 24 25 26 25 26 26
8 5 4 4 4 4 4 4 2 4 8 4 3 3 4 5 6 7 5 5 4 4 5 4 8 10 12 13 13 14 15 16 17 18 19 20 21 22 23 25 25 26 27
9 6 5 4 5 4 4 4 6 6 4 2 4 5 4 4 4 4 5 6 5 4 4 4 8 6 11 11 11 13 14 15 15 16 17 19 19 20 21 23 24 24 25
8 8 5 6 5 5 4 4 6 4 3 4 5 5 5 4 5 4 3 4 3 5 5 5 4 3 8 9 10 11 12 13 14 14 15 16 17 18 19 21 22 23 23
8 9 6 7 7 6 5 4 4 3 3 4 5 3 2 2 3 1 4 3 5 5 5 5 3 3 3 6 7 11 9 13 11 11 13 14 15 16 17 19 20 21 22
11 10 8 10 10 6 6 2 5 3 2 2 3 2 3 1 1 3 4 4 6 2 1 4 5 4 4 3 5 9 9 10 9 10 11 12 13 14 15 16 17 18 19
12 9 8 8 12 9 5 4 4 5 3 2 2 3 2 2 3 3 3 4 1 1 3 1 5 5 4 3 4 5 8 7 8 9 9 11 12 12 14 14 15 17 17
6 8 11 9 10 9 8 5 6 5 5 4 2 2 2 3 3 2 0 1 1 5 5 4 5 4 4 3 5 3 7 7 6 7 7 8 10 11 11 12 13 14 15
12 8 8 11 11 7 7 7 5 5 4 4 3 2 1 2 4 3 2 2 4 5 6 6 5 3 3 3 3 3 5 7 5 7 6 6 7 8 9 10 11 12 12
5 8 9 10 10 8 7 6 6 6 5 5 3 4 3 3 3 3 3 3 5 5 6 6 7 5 5 3 3 4 2 3 5 8 7 5 4 5 6 7 10 11 10
6 3 6 11 9 9 7 7 6 6 6 5 6 4 3 4 3 3 3 2 3 3 3 6 5 5 5 6 3 3 4 4 8 12 10 7 7 1 4 6 8 9 9
7 13 5 10 10 10 8 7 5 5 7 6 7 5 3 4 4 3 3 4 3 2 3 3 5 6 5 6 9 4 6 12 11 12 10 7 6 7 1 6 8 9 10
5 22 18 10 11 10 8 8 6 6 6 6 6 6 3 4 4 4 3 2 3 3 3 5 3 7 5 6 11 10 7 10 11 9 7 6 5 4 3 3 11 9 10
13 8 17 3 10 9 7 9 7 6 7 4 4 6 5 3 4 4 4 3 4 3 4 2 4 4 6 6 12 11 12 17 21 21 21 20 16 17 15 15 12 10 8
11 15 11 4 7 9 8 8 8 8 10 7 5 5 7 6 5 4 3 4 5 4 6 2 2 5 6 7 8 9 10 9 10 22 21 19 16 16 15 14 11 9 8
15 17 12 6 6 7 8 10 8 10 9 7 6 7 7 5 5 4 5 6 4 4 4 6 3 3 5 4 5 6 5 6 6 18 20 19 20 17 15 13 10 8 12
9 8 7 12 6 7 10 8 10 9 9 7 6 8 6 6 5 5 7 6 5 5 5 5 3 2 2 1 4 3 4 4 3 14 16 17 17 17 17 18 17 15 12
6 6 7 11 9 9 10 11 10 10 10 8 8 8 7 7 6 8 7 7 7 8 8 7 5 2 1 0 1 3 4 6 6 6 11 13 16 19 18 17 16 12 11
6 6 9 9 10 10 8 13 12 12 11 11 10 9 8 11 15 12 7 7 8 7 6 5 4 4 4 4 4 3 4 4 6 6 4 4 4 6 7 17 16 21 20
8 9 10 11 11 8 19 20 15 12 12 13 12 12 11 17 20 24 23 20 11 6 7 8 6 6 6 4 4 4 4 2 4 6 4 5 4 4 4 5 15 16 15
9 8 9 12 12 14 23 25 22 12 12 12 13 12 11 11 17 16 25 26 25 26 21 10 10 5 5 4 4 5 5 4 3 5 4 5 5 6 4 7 12 12 12
8 8 10 12 13 13 24 26 24 14 13 12 12 11 11 12 15 15 16 17 15 14 13 10 9 6 6 6 5 3 2 6 4 8 7 4 5 4 4 4 12 11 11
8 8 10 13 14 13 25 26 20 14 13 11 8 9 12 13 21 22 15 15 13 12 18 22 22 22 22 23 18 8 7 5 3 3 7 3 4 4 4 5 5 14 13
8 8 11 12 18 14 23 27 20 11 14 11 11 12 19 15 22 20 11 10 10 6 7 8 8 13 14 17 21 11 7 8 4 4 5 4 5 3 3 4 4 4 5
Wind_Direction
231 157 176 180 175 157 171 186 190 45 349 331 269 232 216 97 122 127 117 98 79 76 72 76 75 69 65 59 61 58 55 49 53 54 48 52 50 50 48 47 45 45 45
206 163 187 198 138 151 195 183 153 120 92 275 274 307 121 104 119 127 135 116 101 86 85 82 84 81 76 68 65 63 60 56 50 56 57 50 54 53 54 51 51 51 48
182 196 171 176 150 160 161 154 153 153 198 234 189 254 109 100 146 122 135 131 123 108 100 99 95 92 85 76 71 68 66 61 58 54 58 57 54 51 55 57 55 52 50
169 182 147 129 151 110 144 130 138 193 237 227 221 106 97 89 110 139 135 115 129 124 112 95 108 104 97 91 79 75 71 64 63 60 57 59 58 57 56 57 54 55 54
168 152 137 159 150 150 132 141 130 232 229 177 67 52 64 80 88 64 98 145 152 138 146 119 109 114 112 99 90 82 76 72 63 64 63 60 59 60 61 58 57 55 54
161 145 150 158 154 159 164 179 184 194 136 133 69 55 36 45 45 76 45 82 150 155 148 139 125 113 116 115 111 100 85 81 73 68 68 65 61 63 59 59 59 58 56
158 155 156 153 145 144 170 182 120 117 57 96 84 27 11 10 108 63 53 69 45 103 155 159 145 127 129 124 131 109 95 89 79 73 70 69 68 62 61 58 55 56 57
158 158 164 157 144 134 162 159 122 123 76 102 149 174 165 8 14 72 82 50 40 10 84 133 149 138 113 93 97 85 97 102 93 86 76 72 69 68 64 62 61 55 53
164 150 152 134 140 139 149 162 134 107 113 339 331 154 34 102 109 7 49 91 41 30 17 64 72 103 107 100 92 100 95 102 108 98 94 81 72 67 67 64 61 59 55
187 167 145 143 136 136 155 170 154 162 125 155 3 328 80 130 135 86 340 111 83 72 53 62 77 78 81 67 51 146 113 102 109 116 101 102 95 83 71 64 61 59 59
196 163 145 142 125 128 141 160 166 164 173 143 159 126 61 72 71 106 140 111 73 52 46 46 44 40 55 100 77 43 159 114 136 110 105 101 105 99 96 85 67 62 56
190 153 146 130 135 148 157 160 150 132 122 121 130 94 102 101 95 88 103 91 109 59 51 40 32 25 15 343 172 157 126 115 152 107 83 65 95 102 101 99 91 77 60
319 250 144 136 149 143 126 120 122 121 111 99 84 81 63 92 113 116 100 90 115 86 78 48 25 20 14 0 5 168 159 139 106 95 85 68 43 65 134 117 99 91 74
83 312 187 130 135 124 118 126 122 105 103 99 104 100 90 79 86 95 133 133 105 112 66 7 34 17 16 12 15 357 167 138 119 100 86 52 31 16 156 147 120 108 91
289 16 338 145 126 119 122 121 113 109 103 107 126 115 106 94 81 85 81 90 137 127 84 30 35 9 16 24 29 39 50 128 114 89 69 44 19 3 84 110 112 107 94
100 53 340 33 116 116 118 110 107 116 107 110 104 116 99 109 98 82 79 76 68 104 114 70 46 23 16 32 37 39 46 59 67 65 57 52 63 73 72 79 72 74 86
130 140 210 258 116 103 112 101 103 109 102 105 103 112 103 94 83 90 87 72 70 79 107 88 68 30 31 40 41 45 44 42 57 67 65 59 55 62 65 65 67 71 80
152 162 165 134 100 109 104 106 109 105 109 102 104 105 100 96 95 89 81 76 76 74 106 117 75 63 55 24 45 55 46 52 53 63 65 61 57 60 67 67 65 73 78
130 139 138 122 116 108 109 106 108 109 103 99 87 84 94 104 87 84 83 80 67 65 80 114 105 74 73 86 65 50 56 51 65 71 65 65 62 65 60 55 60 59 63
109 106 122 122 122 114 109 118 104 94 86 79 77 76 69 87 99 94 88 83 83 82 86 92 86 96 102 156 92 100 62 52 41 23 51 53 60 58 57 49 48 54 50
88 107 104 116 114 105 111 105 99 94 94 86 77 76 79 92 98 94 93 86 87 89 89 96 91 75 61 37 44 1 86 83 45 32 17 28 63 64 48 57 52 51 49
84 82 109 120 108 106 107 103 101 100 95 92 84 73 76 88 90 92 91 87 87 84 77 85 76 70 31 27 41 53 65 58 28 10 18 3 66 69 74 76 61 55 42
106 97 106 106 103 108 111 108 104 100 100 96 95 94 92 88 88 86 81 75 71 71 72 80 76 50 50 31 63 54 66 87 86 342 46 26 10 45 35 48 62 59 41
113 115 105 108 109 117 115 110 108 101 95 97 98 107 110 98 88 91 84 77 74 71 69 72 73 67 63 37 41 51 118 109 86 32 14 63 352 31 40 28 44 54 41
101 113 113 114 113 118 120 115 106 106 106 108 104 94 94 98 100 97 93 93 87 83 85 85 80 70 62 55 48 44 26 62 64 21 16 77 337 39 25 26 11 30 25
97 97 104 108 118 119 124 119 116 113 102 96 90 93 97 106 104 105 101 106 101 92 87 75 65 62 58 55 56 52 46 55 43 31 340 55 360 17 6 346 359 16 10